Flag for U.S.A. Weather past 2 weeks in Wake Island, Wake Island, U.S.A.

Now
78 °F

Passing clouds.


Feels Like: 80 °F
Forecast: 77 / 82 °F
Wind: 21 mph from Northeast

Location: Wake Island Airfld

Current Time: Dec 29, 2014 at 3:13:10 AM

Latest Report: Dec 29, 2014 at 2:58 AM


Visibility: N/A

Pressure: 29.98 "Hg

Humidity: 73%

Dew point: 68 °F

Location of Wake IslandLocation

Historic Weather in Wake Island — Graph

°F

Wake Island temperature yesterday

Maximum temperature yesterday: 83 °F (at 10:58 AM)
Minimum temperature yesterday: 73 °F (at 9:04 PM)
Average temperature yesterday: 78 °F

Past Weeks' High & Low Weather Summary

 TemperatureHumidityPressure
High86 °F (Dec 18, 12:58 PM)95% (Dec 27, 3:58 AM)30.11 "Hg (Dec 27, 3:58 AM)
Low73 °F (Dec 27, 6:59 AM)51% (Dec 22, 9:58 AM)29.92 "Hg (Dec 25, 2:58 PM)
Average80 °F78%30.00 "Hg
* Reported Dec 14 1:03 AM — Dec 29 1:58 AM, Wake Island, Weather by CustomWeather, © 2014

Note: Actual official high and low records may vary slightly from our data, if they occured in-between our weather recording intervals... More about our weather records

Advertising

Wake Island weather history for previous 24 hours

 ConditionsComfort  
Time TempWeatherWind HumidityBarometerVisibility
1:58 AM
Dec 29
78 °FOvercast.22 mph76%29.99 "HgN/A
12:58 AM78 °FMostly cloudy.18 mph78%30.00 "HgN/A
11:58 PM
Dec 28
78 °FMostly cloudy.17 mph82%30.01 "HgN/A
10:58 PM77 °FOvercast.18 mph82%30.01 "HgN/A
10:03 PM73 °FLight rain. Fog.3 mph94%30.00 "Hg6 mi
9:58 PM73 °FLight rain. Fog.2 mph95%30.02 "Hg4 mi
9:04 PM73 °FLight rain. Mostly cloudy.10 mph94%30.00 "HgN/A
8:58 PM74 °FOvercast.10 mph90%30.02 "HgN/A
7:58 PM76 °FMostly cloudy.14 mph84%30.00 "HgN/A
7:04 PM77 °FMore clouds than sun.15 mph83%29.97 "HgN/A
6:59 PM75 °FPartly sunny.10 mph83%29.99 "HgN/A
6:04 PM75 °FOvercast.9 mph89%29.95 "HgN/A
5:58 PM75 °FLight rain. Overcast.9 mph92%29.97 "HgN/A
4:59 PM79 °FLight rain. Broken clouds.17 mph79%29.93 "HgN/A
3:58 PM81 °FOvercast.16 mph65%29.93 "HgN/A
2:58 PM82 °FOvercast.12 mph66%29.93 "HgN/A
1:58 PM81 °FMostly cloudy.13 mph65%29.95 "HgN/A
12:58 PM83 °FOvercast.18 mph63%29.97 "HgN/A
11:58 AM83 °FMostly cloudy.14 mph60%29.99 "HgN/A
10:58 AM83 °FPassing clouds.12 mph60%30.01 "HgN/A
9:58 AM82 °FSunny.12 mph56%30.01 "HgN/A
8:58 AM81 °FPartly sunny.14 mph62%30.00 "HgN/A
7:58 AM78 °FOvercast.14 mph70%29.98 "HgN/A
6:58 AM76 °FPassing clouds.9 mph72%29.96 "HgN/A
5:58 AM76 °FPassing clouds.10 mph77%29.96 "HgN/A
5:00 AM77 °FLight rain. Passing clouds.13 mph79%29.93 "HgN/A
4:58 AM77 °FPassing clouds.6 mph75%29.95 "HgN/A
3:58 AM77 °FPassing clouds.7 mph72%29.95 "HgN/A
Weather by CustomWeather, © 2014

See weather overviewHow to use our weather pages